[[{"header":{"parameterUnit":"m.s-1","parameterCategory":1,"la1":30.2991,"la2":30.254,"lo1":-89.0895,"lo2":-89.0444,"dy":0.0017,"dx":0.0017,"nx":28,"ny":28,"refTime":"2024-04-08T21:00:00:Z","depth":0,"parameterNumber":2,"parameterNumberName":"U-component_of_WINDS"},"data":[0,0,0,0,0,0,0,0,0,0,0,0,0,0,0,0,0,0,0,0,0,0,0,0,0,0,0,0,0,0,0,0,0,0,0,0,0,0,0,0,0,0,0,0,0,0,0,0,0,0,0,0,0,0,0,0,0,0,-5.3817,-5.3818,0,-5.3883,-5.3883,-5.3884,-5.3832,-5.383,-5.3828,-5.3826,-5.3889,-5.3893,-5.3896,0,0,0,0,0,0,0,0,0,0,0,0,0,-5.3646,-5.365,-5.3817,-5.3818,-5.3819,-5.3882,-5.3883,-5.3884,-5.3833,-5.383,-5.3827,-5.3825,-5.3888,-5.3892,-5.3897,0,0,0,0,0,0,0,0,0,0,0,0,0,-5.3717,-5.3651,-5.3817,-5.3801,-5.38,-5.3882,-5.3883,-5.3884,-5.3833,-5.383,-5.3826,-5.3823,-5.3886,-5.3892,-5.3897,-5.3998,0,0,-5.3914,-5.3917,0,0,0,0,0,0,0,0,-5.3713,-5.3723,-5.3803,-5.3802,-5.3802,-5.3846,-5.3846,-5.3922,-5.3834,-5.3821,-5.3826,-5.3822,-5.3877,-5.3883,-5.3903,-5.4001,-5.4003,-5.3915,-5.3918,-5.3921,-5.3922,0,0,0,0,0,0,0,-5.3708,-5.372,-5.3843,-5.3804,-5.3803,-5.379,-5.3796,-5.386,-5.3866,-5.3821,-5.3818,-5.3826,-5.3876,-5.3897,-5.3904,-5.4004,-5.3915,-5.392,-5.3923,-5.3925,-5.4188,-5.4192,0,0,0,0,0,0,-5.3705,-5.3716,-5.3841,-5.3845,-5.3748,-5.3796,-5.3803,-5.3835,-5.3866,-5.3867,-5.3829,-5.3824,-5.3889,-5.3897,-5.3906,-5.4024,-5.3921,-5.3926,-5.3929,-5.4185,-5.4189,-5.4193,0,0,0,0,0,0,-5.3702,-5.3717,-5.3838,-5.378,-5.3794,-5.3802,-5.3839,-5.3838,-5.3859,-5.3872,-5.3872,-5.385,-5.3887,-5.3898,-5.3975,-5.4026,-5.3928,-5.3934,-5.418,-5.4186,-5.4191,-5.4263,0,0,0,0,0,0,-5.3697,-5.3716,-5.3754,-5.3781,-5.3798,-5.3908,-5.3842,-5.3842,-5.3869,-5.3863,-5.3891,-5.3892,-5.3885,-5.3967,-5.3981,-5.4032,-5.3938,-5.4176,-5.4183,-5.4189,-5.4256,-5.427,-5.4282,0,0,0,0,0,-5.3691,-5.3771,-5.3757,-5.3772,-5.3846,-5.3911,-5.392,-5.3911,-5.3874,-5.3912,-5.392,-5.3891,-5.4019,-5.3976,-5.3991,-5.4044,-5.4172,-5.4181,-5.4189,-5.425,-5.4267,-5.4282,0,0,0,0,0,0,-5.3748,-5.3774,-5.3758,-5.385,-5.3879,-5.3902,-5.3949,-5.393,-5.3969,-5.3961,-5.3948,-5.3955,-5.4036,-5.4048,-5.4,-5.4143,-5.409,-5.4101,-5.4131,-5.4147,-5.416,-5.4154,-5.3943,0,0,0,0,0,-5.3772,-5.3823,-5.3843,-5.3922,-5.3937,-5.3941,-5.3969,-5.396,-5.3989,-5.4,-5.4014,-5.4043,-5.4089,-5.4119,-5.4163,-5.4259,-5.4263,-5.4303,-5.4316,-5.4327,-5.4335,-5.4386,-5.4404,-5.422,-5.422,-5.4219,0,0,-5.382,-5.3841,-5.3874,-5.3934,-5.3955,-5.4007,-5.3952,-5.4009,-5.4047,-5.4009,-5.4082,-5.4094,-5.4125,-5.4212,-5.4251,-5.4225,-5.4388,-5.4337,-5.4346,-5.4348,-5.4396,-5.4414,-5.4429,-5.4225,-5.4224,-5.4223,0,0,-5.3934,-5.3957,-5.4024,-5.4047,-5.4081,-5.4083,-5.41,-5.4127,-5.4134,-5.4208,-5.418,-5.4226,-5.4306,-5.4329,-5.4351,-5.4478,-5.4452,-5.4493,-5.4559,-5.4609,-5.4623,-5.4636,-5.4679,-5.4695,-5.4502,-5.4503,-5.4503,0,-5.3989,-5.4068,-5.4061,-5.4121,-5.4147,-5.4118,-5.4185,-5.4208,-5.4254,-5.4272,-5.4243,-5.4344,-5.4363,-5.4454,-5.4485,-5.4505,-5.4523,-5.4487,-5.4622,-5.4635,-5.4647,-5.4687,-5.4704,-5.4507,-5.4507,-5.4506,-5.4506,0,-5.4133,-5.4189,-5.4239,-5.4285,-5.4318,-5.4382,-5.4384,-5.4418,-5.4408,-5.4413,-5.449,-5.4512,-5.4559,-5.4581,-5.4571,-5.4672,-5.4654,-5.4624,-5.457,-5.4669,-5.4707,-5.4722,-5.4513,-5.4512,-5.451,-5.4509,0,0,-5.4281,-5.4325,-5.4343,-5.4364,-5.44,-5.4442,-5.4505,-5.4553,-5.4582,-5.4616,-5.4666,-5.4737,-5.471,-5.4735,-5.4728,-5.4772,-5.4869,-5.4737,-5.4737,-5.4758,-5.4979,-5.4999,-5.5017,-5.4854,-5.4857,-5.486,-5.4976,0,-5.4395,-5.4504,-5.4501,-5.4602,-5.4652,-5.4627,-5.4681,-5.4709,-5.4717,-5.4761,-5.4769,-5.4819,-5.478,-5.4795,-5.4839,-5.4848,-5.4913,-5.484,-5.4899,-5.4902,-5.4889,-5.5037,-5.5058,-5.5166,-5.4991,-5.4994,-5.4995,0,-5.4541,-5.4581,-5.4688,-5.4718,-5.4738,-5.4788,-5.4831,-5.4874,-5.4905,-5.4908,-5.4938,-5.4925,-5.4987,-5.4935,-5.5021,-5.4972,-5.4997,-5.5006,-5.501,-5.5011,-5.4951,-5.504,-5.5201,-5.5216,-5.5019,-5.5017,-5.5016,0,-5.4634,-5.4715,-5.479,-5.4809,-5.4846,-5.4881,-5.4898,-5.4927,-5.4956,-5.4995,-5.5013,-5.5059,-5.5083,-5.5118,-5.5117,-5.5079,-5.5203,-5.5151,-5.5206,-5.5206,-5.5229,-5.5227,-5.5393,-5.5252,-5.5251,-5.5251,-5.5251,0,-5.4759,-5.4825,-5.4832,-5.4877,-5.495,-5.4947,-5.5019,-5.5033,-5.5059,-5.5106,-5.5088,-5.5132,-5.5129,-5.5174,-5.5174,-5.5244,-5.5256,-5.5259,-5.5257,-5.5258,-5.5258,-5.5271,-5.5262,-5.5255,-5.5254,-5.5254,-5.5253,0,-5.4874,-5.4882,-5.4961,-5.4991,-5.5,-5.5052,-5.5078,-5.512,-5.5129,-5.5188,-5.5202,-5.5214,-5.5266,-5.527,-5.533,-5.533,-5.5414,-5.5406,-5.5404,-5.5401,-5.5454,-5.5448,-5.5631,-5.5654,-5.5502,-5.5503,-5.5504,0,-5.4951,-5.5001,-5.5038,-5.5069,-5.5088,-5.5138,-5.5168,-5.5168,-5.52,-5.5241,-5.5279,-5.533,-5.5369,-5.5454,-5.5467,-5.5514,-5.5504,-5.5566,-5.5511,-5.551,-5.5502,-5.5497,-5.5501,-5.5575,-5.5577,-5.5578,-5.5579,0,-5.5087,-5.5089,-5.5133,-5.518,-5.5217,-5.5254,-5.5288,-5.5314,-5.5318,-5.5355,-5.5409,-5.544,-5.5503,-5.5553,-5.5599,-5.5615,-5.5597,-5.5597,-5.5612,-5.5611,-5.5606,-5.5607,-5.5429,-5.5592,-5.559,-5.5589,-5.5589,-5.5588,-5.5183,-5.5226,-5.5258,-5.5309,-5.5336,-5.5368,-5.541,-5.5425,-5.547,-5.5521,-5.5519,-5.5578,-5.5609,-5.5669,-5.569,-5.5735,-5.5714,-5.5736,-5.5741,-5.5745,-5.5749,-5.5603,-5.5744,-5.5744,-5.5743,-5.5743,-5.5743,0,-5.5314,-5.5335,-5.5382,-5.5431,-5.5471,-5.5455,-5.5492,-5.5526,-5.5578,-5.561,-5.5651,-5.5713,-5.5762,-5.5781,-5.5829,-5.5862,-5.5855,-5.5875,-5.587,-5.5874,-5.5767,-5.5748,-5.5879,-5.5879,-5.5879,-5.5879,-5.5879,-5.5879,-5.5387,-5.5459,-5.5466,-5.555,-5.5571,-5.5629,-5.5652,-5.5682,-5.5707,-5.5777,-5.5819,-5.5832,-5.5858,-5.5909,-5.5953,-5.5957,-5.5974,-5.5996,-5.5997,-5.5895,-5.5882,-5.5868,-5.585,-5.6001,-5.6001,-5.61,-5.6101,-5.6101]},{"header":{"parameterUnit":"m.s-1","parameterCategory":1,"la1":30.2991,"la2":30.254,"lo1":-89.0895,"lo2":-89.0444,"dy":0.0017,"dx":0.0017,"nx":28,"ny":28,"refTime":"2024-04-08T21:00:00:Z","depth":0,"parameterNumber":3,"parameterNumberName":"V-component_of_WINDS"},"data":[0,0,0,0,0,0,0,0,0,0,0,0,0,0,0,0,0,0,0,0,0,0,0,0,0,0,0,0,0,0,0,0,0,0,0,0,0,0,0,0,0,0,0,0,0,0,0,0,0,0,0,0,0,0,0,0,0,0,1.9256,1.9256,0,1.9291,1.9291,1.9292,1.9302,1.9302,1.9302,1.9302,1.9335,1.9336,1.9337,0,0,0,0,0,0,0,0,0,0,0,0,0,1.9198,1.9199,1.9256,1.9256,1.9257,1.9291,1.9291,1.9292,1.9302,1.9302,1.9302,1.9302,1.9334,1.9336,1.9337,0,0,0,0,0,0,0,0,0,0,0,0,0,1.9227,1.9199,1.9256,1.9266,1.9267,1.9291,1.9291,1.9292,1.9302,1.9302,1.9302,1.9301,1.9334,1.9335,1.9337,1.9352,0,0,1.9342,1.9342,0,0,0,0,0,0,0,0,1.9225,1.9229,1.9264,1.9266,1.9267,1.9292,1.9283,1.9312,1.9302,1.9289,1.9302,1.9301,1.932,1.9323,1.933,1.9353,1.9355,1.9342,1.9343,1.9343,1.9344,0,0,0,0,0,0,0,1.9223,1.9227,1.927,1.9265,1.9266,1.9269,1.9273,1.9289,1.9306,1.929,1.9291,1.9295,1.9321,1.9329,1.9331,1.9355,1.9342,1.9343,1.9344,1.9345,1.9395,1.9396,0,0,0,0,0,0,1.9219,1.9226,1.9269,1.9271,1.9245,1.927,1.9274,1.9284,1.9306,1.9309,1.9295,1.9295,1.9326,1.9329,1.9332,1.9353,1.9343,1.9345,1.9346,1.9395,1.9395,1.9396,0,0,0,0,0,0,1.9218,1.9223,1.9267,1.9249,1.9254,1.9271,1.9282,1.9285,1.9293,1.931,1.9312,1.93,1.9326,1.933,1.9348,1.9354,1.9346,1.9347,1.9394,1.9395,1.9396,1.9393,0,0,0,0,0,0,1.9216,1.9223,1.9228,1.9249,1.9255,1.9282,1.9283,1.9286,1.9296,1.9296,1.9315,1.9317,1.9326,1.9345,1.9349,1.9356,1.9348,1.9394,1.9395,1.9395,1.9392,1.9393,1.9394,0,0,0,0,0,1.9214,1.9225,1.9229,1.9234,1.9263,1.9283,1.9286,1.9297,1.9296,1.9302,1.9314,1.9317,1.9353,1.9347,1.9352,1.9359,1.9393,1.9394,1.9395,1.9392,1.9393,1.9394,0,0,0,0,0,0,1.9203,1.9228,1.9232,1.9249,1.9264,1.9284,1.9292,1.9297,1.9312,1.9311,1.9323,1.9328,1.9345,1.9353,1.9347,1.9376,1.9373,1.9375,1.9369,1.937,1.9371,1.9368,1.935,0,0,0,0,0,1.9203,1.9217,1.9238,1.9251,1.9259,1.9274,1.9283,1.9291,1.9306,1.9311,1.9324,1.9338,1.9353,1.9362,1.9376,1.9394,1.9399,1.9401,1.9402,1.9403,1.9404,1.9416,1.9418,1.9399,1.9399,1.9399,0,0,1.9202,1.9217,1.9225,1.925,1.9262,1.9277,1.9279,1.9294,1.9305,1.9313,1.9332,1.9342,1.9358,1.9376,1.9385,1.9384,1.9411,1.9404,1.9404,1.9405,1.9417,1.9419,1.942,1.9399,1.9399,1.9399,0,0,1.9208,1.9221,1.9235,1.9248,1.9267,1.9278,1.9281,1.9302,1.9309,1.9328,1.9335,1.9348,1.9373,1.9385,1.9395,1.9409,1.9413,1.9414,1.9417,1.9429,1.943,1.9432,1.9438,1.944,1.9415,1.9415,1.9415,0,1.9204,1.9228,1.9241,1.9257,1.9268,1.9278,1.9293,1.9304,1.9326,1.9334,1.9333,1.9366,1.9378,1.94,1.9404,1.9411,1.9416,1.9411,1.9429,1.9431,1.9432,1.9438,1.9441,1.9415,1.9415,1.9415,1.9415,0,1.9223,1.9239,1.9248,1.9272,1.9284,1.9298,1.9314,1.9325,1.9332,1.9343,1.9363,1.9378,1.9397,1.9403,1.9409,1.9427,1.9426,1.9427,1.9425,1.9434,1.944,1.9442,1.9415,1.9415,1.9415,1.9415,0,0,1.922,1.9254,1.9257,1.9269,1.9293,1.9305,1.9321,1.9341,1.9351,1.9366,1.9381,1.9403,1.9405,1.9416,1.9424,1.9434,1.9447,1.9434,1.9435,1.9437,1.9469,1.9468,1.947,1.945,1.945,1.9451,1.9468,0,1.923,1.926,1.9274,1.9298,1.9314,1.9326,1.934,1.9356,1.9368,1.9383,1.9395,1.9411,1.9412,1.9419,1.943,1.9443,1.9453,1.9442,1.9463,1.9464,1.9459,1.9473,1.9472,1.9487,1.947,1.947,1.947,0,1.9245,1.9263,1.9289,1.9314,1.9321,1.9333,1.9354,1.9368,1.9388,1.9395,1.9409,1.9418,1.9435,1.9433,1.9458,1.945,1.946,1.9468,1.9469,1.9471,1.9467,1.9476,1.9491,1.9494,1.9474,1.9474,1.9474,0,1.9242,1.9273,1.9293,1.9303,1.9332,1.9341,1.9353,1.9372,1.9384,1.9402,1.941,1.9429,1.9439,1.9454,1.9468,1.9465,1.9492,1.949,1.95,1.9499,1.9504,1.9504,1.9522,1.951,1.951,1.951,1.951,0,1.9251,1.9267,1.9293,1.9305,1.9324,1.934,1.9358,1.9371,1.9388,1.9403,1.9414,1.9428,1.9445,1.9462,1.9472,1.9493,1.9497,1.9504,1.9506,1.9503,1.9502,1.9509,1.9509,1.9511,1.9511,1.9511,1.951,0,1.9251,1.9268,1.9292,1.9318,1.9325,1.9338,1.936,1.9373,1.9386,1.9405,1.9411,1.9431,1.9451,1.9467,1.9492,1.95,1.9521,1.9524,1.9515,1.9516,1.9525,1.9524,1.9548,1.9553,1.9538,1.9538,1.9538,0,1.9255,1.9268,1.9297,1.9309,1.9322,1.934,1.9353,1.9371,1.9384,1.9408,1.9418,1.944,1.9458,1.9489,1.9506,1.9526,1.953,1.9537,1.9532,1.9529,1.953,1.953,1.9532,1.9537,1.9537,1.9537,1.9537,0,1.9262,1.9271,1.929,1.9313,1.9329,1.9348,1.9366,1.9375,1.9396,1.9411,1.9432,1.9447,1.9474,1.9496,1.9518,1.953,1.9537,1.9539,1.9542,1.9538,1.9533,1.9537,1.9517,1.9538,1.9538,1.9538,1.9538,1.9538,1.9265,1.9278,1.9301,1.9322,1.9339,1.9357,1.9371,1.9387,1.9406,1.9431,1.944,1.9463,1.9484,1.9515,1.9528,1.9546,1.9546,1.9551,1.9552,1.9553,1.9553,1.9531,1.955,1.955,1.955,1.955,1.955,0,1.9273,1.9289,1.9309,1.9336,1.9354,1.9361,1.9383,1.9397,1.9417,1.9437,1.9455,1.9481,1.9503,1.9523,1.9545,1.9556,1.956,1.9561,1.956,1.9563,1.9551,1.9546,1.9558,1.9558,1.9558,1.9558,1.9558,1.9558,1.9279,1.9302,1.9314,1.9346,1.9362,1.9386,1.9398,1.9415,1.9431,1.946,1.9479,1.9492,1.9512,1.9537,1.9557,1.9563,1.957,1.9571,1.9577,1.9565,1.9564,1.9563,1.9559,1.9573,1.9573,1.9588,1.9588,1.9588]}]]